Home > Weather > Kaohsiung > Past weeks

Flag for Taiwan Past Weather in Kaohsiung, Taiwan — Yesterday and Last 2 Weeks

Now
86 °F

Scattered clouds.


Feels Like: 99 °F
Forecast: 84 / 94 °F
Wind: 5 mph from Northeast

Location: Kaohsiung International Airport

Current Time: Jul 31, 2016 at 8:41:48 AM

Latest Report: Jul 31, 2016 at 8:00 AM


Visibility: 5 mi

Pressure: 29.68 "Hg

Humidity: 79%

Dew Point: 79 °F

Location of KaohsiungLocation

Past Weather in Kaohsiung — Graph

°F

Kaohsiung Temperature Yesterday

Maximum temperature yesterday: 95 °F (at 1:00 PM)
Minimum temperature yesterday: 79 °F (at 6:00 AM)
Average temperature yesterday: 86 °F

High & Low Weather Summary for the Past Weeks

 TemperatureHumidityPressure
High95 °F (Jul 30, 1:00 PM)94% (Jul 17, 6:00 AM)29.89 "Hg (Jul 17, 6:00 AM)
Low77 °F (Jul 18, 6:30 PM)56% (Jul 25, 11:00 AM)29.68 "Hg (Jul 30, 2:52 PM)
Average86 °F75%29.80 "Hg
* Reported Jul 16 7:00 AM — Jul 31 7:30 AM, Kaohsiung, Weather by CustomWeather, © 2016

Note: Actual official high and low records may vary slightly from our data, if they occured in-between our weather recording intervals... More about our weather records

Advertising

Kaohsiung Weather History for the Previous 24 Hours

Scroll right to see more
 ConditionsComfort  
Time TempWeatherWind HumidityBarometerVisibility
7:30 AM
Sun, Jul 31
84 °FScattered clouds.5 mph79%29.68 "Hg6 mi
7:00 AM82 °FPassing clouds.6 mph84%29.68 "HgN/A
6:30 AM81 °FPassing clouds.6 mph89%29.68 "Hg6 mi
6:00 AM81 °FPassing clouds.6 mph89%29.68 "Hg6 mi
5:00 AM81 °FPassing clouds.6 mph89%29.68 "Hg4 mi
4:00 AM81 °FPassing clouds.5 mph89%29.68 "Hg4 mi
3:00 AM81 °FPassing clouds.6 mph89%29.68 "Hg5 mi
2:00 AM81 °FPassing clouds.6 mph89%29.71 "Hg5 mi
1:00 AM82 °FPassing clouds.3 mph84%29.71 "Hg5 mi
12:00 AM82 °FPassing clouds.2 mph84%29.71 "Hg6 mi
11:30 PM
Sat, Jul 30
81 °FPassing clouds.5 mph89%29.74 "Hg6 mi
11:00 PM82 °FPartly cloudy.6 mph84%29.74 "Hg4 mi
10:30 PM82 °FPartly cloudy.6 mph84%29.74 "Hg5 mi
10:00 PM82 °FPartly cloudy.6 mph84%29.74 "Hg5 mi
9:30 PM84 °FPassing clouds.5 mph79%29.74 "HgN/A
9:00 PM82 °FPartly cloudy.6 mph84%29.74 "HgN/A
8:30 PM84 °FPartly cloudy.2 mph84%29.71 "HgN/A
8:00 PM84 °FPartly cloudy.2 mph84%29.71 "Hg6 mi
7:30 PM84 °FPassing clouds.2 mph79%29.71 "HgN/A
7:00 PM82 °FPartly cloudy.2 mph84%29.71 "Hg5 mi
6:30 PM82 °FScattered showers. Broken clouds.2 mph79%29.68 "Hg5 mi
6:00 PM82 °FThunderstorms. Partly sunny.10 mph84%29.71 "Hg4 mi
5:30 PM82 °FThundershowers. Broken clouds.7 mph89%29.68 "Hg4 mi
5:00 PM84 °FScattered showers. Broken clouds.9 mph84%29.68 "Hg4 mi
4:30 PM86 °FPartly sunny.5 mph84%29.68 "Hg4 mi
4:00 PM86 °FPartly sunny.6 mph79%29.68 "Hg5 mi
3:30 PM86 °FSprinkles. Broken clouds.6 mph79%29.71 "Hg5 mi
3:02 PM84 °FThundershowers. Broken clouds.10 mph89%29.68 "Hg3 mi
2:52 PM84 °FThunderstorms. Broken clouds.9 mph89%29.68 "Hg3 mi
2:30 PM86 °FThunderstorms. Broken clouds.9 mph79%29.71 "HgN/A
2:00 PM88 °FThunderstorms. Broken clouds.16 mph75%29.71 "HgN/A
1:30 PM90 °FThunderstorms. Broken clouds.16 mph67%29.71 "HgN/A
1:02 PM93 °FThundershowers. Scattered clouds.15 mph59%29.71 "HgN/A
1:00 PM95 °FScattered showers. Scattered clouds.15 mph56%29.71 "HgN/A
12:30 PM93 °FScattered clouds.12 mph63%29.71 "HgN/A
12:00 PM93 °FPartly sunny.12 mph63%29.74 "HgN/A
11:30 AM93 °FBroken clouds.12 mph59%29.74 "HgN/A
11:00 AM91 °FBroken clouds.9 mph63%29.74 "HgN/A
10:45 AM93 °FPartly sunny.8 mph63%29.74 "HgN/A
10:30 AM93 °FPartly sunny.10 mph56%29.74 "HgN/A
10:00 AM90 °FPartly sunny.8 mph63%29.74 "HgN/A
9:30 AM91 °FScattered clouds.3 mph63%29.74 "HgN/A
9:00 AM90 °FPassing clouds.3 mph63%29.77 "HgN/A
8:30 AM88 °FPassing clouds.6 mph66%29.77 "HgN/A
8:00 AM86 °FScattered clouds.8 mph66%29.77 "HgN/A
Weather by CustomWeather, © 2016

See weather overviewHow to use our weather pages